CW5324 Weather Reports


Display with metric or nautical units.
time (UTC)temp
F
wind
direction
speed
MPH
gust
MPH
rain 1hr
in
rain 24hr
in
rain mn
in
humidity
%
barometer
mb
20260506194515 62 0.0 0.0 0.03 0.09 0.09 91
20260506193520 62 0.0 0.0 0.03 0.09 0.09 90
20260506192601 63 0.0 0.0 0.04 0.09 0.09 90
20260506191520 63 0.0 0.0 0.04 0.09 0.09 89
20260506190520 63 0.0 0.0 0.02 0.07 0.07 89
20260506185520 63 0.0 0.0 0.03 0.07 0.07 88
20260506184520 64 0.0 0.0 0.03 0.06 0.06 87
20260506183515 64 0.0 0.0 0.03 0.06 0.06 86
20260506182520 65 0.0 0.0 0.04 0.05 0.05 86
20260506181520 65 0.0 0.0 0.05 0.05 0.05 85
20260506180520 65 0.0 0.0 0.05 0.05 0.05 84
20260506175521 66 0.0 0.0 0.04 0.04 0.04 82
20260506174520 66 0.0 0.0 0.03 0.03 0.03 81
20260506173515 67 0.0 0.0 0.03 0.03 0.03 78
20260506172515 68 0.0 0.0 0.01 0.01 0.01 75
20260506171520 69 0.0 0.0 0.00 0.00 0.00 74
20260506170520 69 0.0 0.0 0.00 0.00 0.00 72
20260506165520 69 0.0 0.0 0.00 0.00 0.00 69
20260506164520 70 0.0 0.0 0.00 0.00 0.00 69
20260506163521 70 0.0 0.0 0.00 0.00 0.00 67
20260506162535 70 0.0 0.0 0.00 0.00 0.00 67
20260506161515 70 0.0 0.0 0.00 0.00 0.00 68
20260506160520 69 0.0 0.0 0.00 0.00 0.00 69
20260506155600 69 0.0 0.0 0.00 0.00 0.00 70
20260506154520 68 0.0 0.0 0.00 0.00 0.00 70
20260506153518 68 0.0 0.0 0.00 0.00 0.00 70
20260506152523 68 0.0 0.0 0.00 0.00 0.00 71
20260506151522 68 0.0 0.0 0.00 0.00 0.00 72
20260506150522 67 0.0 0.0 0.00 0.00 0.00 73
20260506145523 67 0.0 0.0 0.00 0.00 0.00 73
20260506144522 67 0.0 0.0 0.00 0.00 0.00 73
20260506143522 67 0.0 0.0 0.00 0.00 0.00 73
20260506142516 67 0.0 0.0 0.00 0.00 0.00 73
20260506141522 67 0.0 0.0 0.00 0.00 0.00 73
20260506140542 67 0.0 0.0 0.00 0.00 0.00 73
20260506135522 67 0.0 0.0 0.00 0.00 0.00 74
20260506134522 66 0.0 0.0 0.00 0.00 0.00 75
20260506133522 65 0.0 0.0 0.00 0.00 0.00 75
20260506132537 65 0.0 0.0 0.00 0.00 0.00 75
20260506131517 65 0.0 0.0 0.00 0.00 0.00 76
20260506130522 65 0.0 0.0 0.00 0.00 0.00 77
20260506125522 64 0.0 0.0 0.00 0.00 0.00 77
20260506124521 64 0.0 0.0 0.00 0.00 0.00 78
20260506123522 64 0.0 0.0 0.00 0.00 0.00 79
20260506122522 63 0.0 0.0 0.00 0.00 0.00 80
20260506121517 63 0.0 0.0 0.00 0.00 0.00 80
20260506120520 63 0.0 0.0 0.00 0.00 0.00 80
20260506115642 63 0.0 0.0 0.00 0.00 0.00 80
20260506114522 62 0.0 0.0 0.00 0.00 0.00 81
20260506113603 62 0.0 0.0 0.00 0.00 0.00 81
20260506112520 62 0.0 0.0 0.00 0.00 0.00 81
20260506111522 62 0.0 0.0 0.00 0.00 0.00 81
20260506110517 62 0.0 0.0 0.00 0.00 0.00 82
20260506105522 61 0.0 0.0 0.00 0.00 0.00 82
20260506104522 61 0.0 0.0 0.00 0.00 0.00 82
20260506103522 61 0.0 0.0 0.00 0.00 0.00 82
20260506102542 61 0.0 0.0 0.00 0.00 0.00 82
20260506101522 61 0.0 0.0 0.00 0.00 0.00 82
20260506100522 61 0.0 0.0 0.00 0.00 0.00 81
20260506095517 61 0.0 0.0 0.00 0.00 0.00 81
20260506094542 61 0.0 0.0 0.00 0.00 0.00 81
20260506093521 61 0.0 0.0 0.00 0.00 0.00 80
20260506092521 61 0.0 0.0 0.00 0.00 0.00 79
20260506091604 61 0.0 0.0 0.00 0.00 0.00 79
20260506090522 62 0.0 0.0 0.00 0.00 0.00 79
20260506085517 62 0.0 0.0 0.00 0.00 0.00 78
20260506084516 62 0.0 0.0 0.00 0.00 0.00 78
20260506083602 62 0.0 0.0 0.00 0.00 0.00 78
20260506082523 62 0.0 0.0 0.00 0.00 0.00 77
20260506081522 62 0.0 0.0 0.00 0.00 0.00 77
20260506080522 62 0.0 0.0 0.00 0.00 0.00 77
20260506072522 63 0.0 0.0 0.00 0.00 0.00 74
20260506071522 63 0.0 0.0 0.00 0.00 0.00 73
20260506070522 64 0.0 0.0 0.00 0.00 0.00 72
20260506061523 65 0.0 0.0 0.00 0.00 0.00 68
20260506060522 65 0.0 0.0 0.00 0.00 0.00 67
20260506050522 65 0.0 0.0 0.00 0.00 0.00 65
20260506044602 65 0.0 0.0 0.00 0.00 0.00 65
20260506043522 66 0.0 0.0 0.00 0.00 0.00 64
20260506042522 66 0.0 0.0 0.00 0.00 0.00 64
20260506041517 66 0.0 0.0 0.00 0.00 0.00 63
20260506040522 66 0.0 0.0 0.00 0.00 0.00 63
20260506035521 66 0.0 0.0 0.00 0.00 0.00 63
20260506034521 66 0.0 0.0 0.00 0.00 0.00 62
20260506033521 66 0.0 0.0 0.00 0.00 0.00 62
20260506032516 66 0.0 0.0 0.00 0.00 0.00 61
20260506031521 67 0.0 0.0 0.00 0.00 0.00 61
20260506030521 67 0.0 0.0 0.00 0.00 0.00 60
20260506025521 67 0.0 0.0 0.00 0.00 0.00 59
20260506024522 67 0.0 0.0 0.00 0.00 0.00 58
20260506023541 68 0.0 0.0 0.00 0.00 0.00 58
20260506022521 68 0.0 0.0 0.00 0.00 0.00 57
20260506021516 68 0.0 0.0 0.00 0.00 0.00 57
20260506020541 69 0.0 0.0 0.00 0.00 0.00 57
20260506015521 69 0.0 0.0 0.00 0.00 0.00 56
20260506014522 69 0.0 0.0 0.00 0.00 0.00 56
20260506013521 70 0.0 0.0 0.00 0.00 0.00 55
20260506012521 70 0.0 0.0 0.00 0.00 0.00 55
20260506011541 70 0.0 0.0 0.00 0.00 0.00 55
20260506010536 71 0.0 0.0 0.00 0.00 0.00 54
20260506005521 71 0.0 0.0 0.00 0.00 0.00 53
20260506004521 72 0.0 0.0 0.00 0.00 0.00 52
20260506003522 72 0.0 0.0 0.00 0.00 0.00 52
20260506002522 73 0.0 0.0 0.00 0.00 0.00 51
20260506001521 73 0.0 0.0 0.00 0.00 0.00 50
20260506000516 73 0.0 0.0 0.00 0.00 0.00 49
20260505235516 74 0.0 0.0 0.00 0.00 0.00 48
20260505234541 74 0.0 0.0 0.00 0.00 0.00 48
20260505233521 75 0.0 0.0 0.00 0.00 0.00 47
20260505232542 75 0.0 0.0 0.00 0.00 0.00 46
20260505231521 76 0.0 0.0 0.00 0.00 0.00 45
20260505230521 76 0.0 0.0 0.00 0.00 0.00 45
20260505225517 76 0.0 0.0 0.00 0.00 0.00 44
20260505224522 77 0.0 0.0 0.00 0.00 0.00 44
20260505223522 78 0.0 0.0 0.00 0.00 0.00 42
20260505222521 79 0.0 0.0 0.00 0.00 0.00 41
20260505221521 79 0.0 0.0 0.00 0.00 0.00 40
20260505220521 79 0.0 0.0 0.00 0.00 0.00 41
20260505215521 80 0.0 0.0 0.00 0.00 0.00 40
20260505214516 81 0.0 0.0 0.00 0.00 0.00 39
20260505213521 81 0.0 0.0 0.00 0.00 0.00 39
20260505212521 81 0.0 0.0 0.00 0.00 0.00 39
20260505211521 81 0.0 0.0 0.00 0.00 0.00 39
20260505210522 81 0.0 0.0 0.00 0.00 0.00 39
20260505205521 82 0.0 0.0 0.00 0.00 0.00 37
20260505204521 83 0.0 0.0 0.00 0.00 0.00 36
20260505203556 83 0.0 0.0 0.00 0.00 0.00 36
20260505202521 83 0.0 0.0 0.00 0.00 0.00 36
20260505201521 83 0.0 0.0 0.00 0.00 0.00 35
20260505200521 84 0.0 0.0 0.00 0.00 0.00 35
20260505195521 83 0.0 0.0 0.00 0.00 0.00 34
20260505194542 84 0.0 0.0 0.00 0.00 0.00 33